East Milton, MA

2:19 AM EDT on September 23, 2017 (GMT -0400)
East Milton

Weather History for KMQE - February, 2013

Change the Weather History Date:

Tuesday, February 12, 2013

  Actual Average (KOWD) Record (KOWD)
Temperature  
Mean Temperature 38 °F -  
Max Temperature 43 °F 36 °F 59 °F (1999)
Min Temperature 30 °F 18 °F -6 °F (2014)
Degree Days  
Heating Degree Days 28    
Moisture  
Dew Point 26 °F    
Average Humidity 66    
Maximum Humidity 96    
Minimum Humidity 49    
Precipitation  
Precipitation 0.00 in - - ()
Sea Level Pressure  
Sea Level Pressure 29.74 in    
Wind  
Wind Speed 17 mph (West)    
Max Wind Speed 28 mph    
Max Gust Speed 36 mph    
Averages and records for this station are not official NWS values.
T = Trace of Precipitation, MM = Missing Value Source: NWS Daily Summary

Daily Weather History Graph

Daily Weather History Graph

Search for Another Location

Airport or City:

Trip Planner

Search our weather history database for the weather conditions in past years. The results will help you decide how hot, cold, wet, or windy it might be!

Date:

Astronomy

Feb. 12, 2013 Rise Set
Actual Time 6:44 AM EST 5:13 PM EST
Civil Twilight 6:15 AM EST 5:42 PM EST
Nautical Twilight 5:42 AM EST 6:15 PM EST
Astronomical Twilight 5:10 AM EST 6:47 PM EST
Moon 7:36 AM EST (2/12) 8:15 PM EST (2/12)
Length of Visible Light 11h 26m
Length of Day
10h 29m
Waxing Crescent, 7% of the Moon is Illuminated
Feb 12
Waxing Crescent
Feb 17
First Quarter
Feb 25
Full
Mar 4
Last Quarter
Mar 11
New

Hourly Weather History & Observations

Time (EST) Temp. Windchill Dew Point Humidity Pressure Visibility Wind Dir Wind Speed Gust Speed Precip Events Conditions
12:54 AM 39.0 °F 31.0 °F 37.9 °F 96% 29.64 in - WNW 13.8 mph 23.0 mph N/A   Unknown
1:54 AM 37.0 °F 27.4 °F 35.1 °F 93% 29.63 in - WNW 17.3 mph 25.3 mph N/A   Unknown
2:54 AM 36.0 °F 24.4 °F 30.0 °F 79% 29.62 in - WNW 23.0 mph 33.4 mph N/A   Unknown
3:54 AM 35.1 °F 24.8 °F 27.0 °F 72% 29.65 in - WNW 17.3 mph 29.9 mph N/A   Unknown
4:54 AM 34.0 °F 23.8 °F 26.1 °F 73% 29.66 in - West 16.1 mph 28.8 mph N/A   Unknown
5:54 AM 34.0 °F 24.2 °F 25.0 °F 70% 29.67 in - West 15.0 mph - N/A   Unknown
6:54 AM 33.1 °F 23.9 °F 26.1 °F 75% 29.68 in - West 12.7 mph - N/A   Unknown
7:54 AM 34.0 °F 24.6 °F 26.1 °F 73% 29.70 in - West 13.8 mph - N/A   Unknown
8:54 AM 37.0 °F 29.3 °F 27.0 °F 67% 29.71 in - West 11.5 mph - N/A   Unknown
9:54 AM 39.0 °F 31.4 °F 26.1 °F 60% 29.71 in - West 12.7 mph - N/A   Unknown
10:54 AM 39.9 °F 29.7 °F 24.1 °F 53% 29.71 in - West 23.0 mph 33.4 mph N/A   Unknown
11:54 AM 41.0 °F 30.2 °F 24.1 °F 51% 29.71 in - West 27.6 mph 35.7 mph N/A   Unknown
12:54 PM 42.1 °F 32.1 °F 24.1 °F 49% 29.72 in - West 25.3 mph 34.5 mph N/A   Unknown
1:54 PM 43.0 °F 35.7 °F 25.0 °F 49% 29.74 in - West 15.0 mph 28.8 mph N/A   Unknown
2:54 PM 42.1 °F 32.8 °F 25.0 °F 51% 29.75 in - West 21.9 mph 34.5 mph N/A   Unknown
3:54 PM 39.0 °F 29.9 °F 25.0 °F 57% 29.77 in - West 17.3 mph 31.1 mph N/A   Unknown
4:54 PM 37.9 °F 27.9 °F 25.0 °F 60% 29.77 in - West 19.6 mph 28.8 mph N/A   Unknown
5:54 PM 36.0 °F 26.3 °F 25.0 °F 64% 29.78 in - West 16.1 mph 25.3 mph N/A   Unknown
6:54 PM 36.0 °F 26.3 °F 25.0 °F 64% 29.81 in - West 16.1 mph - N/A   Unknown
7:54 PM 36.0 °F 26.3 °F 25.0 °F 64% 29.87 in - West 16.1 mph 26.5 mph N/A   Unknown
8:54 PM 36.0 °F 26.3 °F 25.0 °F 64% 29.90 in - West 16.1 mph 21.9 mph N/A   Unknown
9:54 PM 34.0 °F 26.0 °F 24.1 °F 67% 29.86 in - West 10.4 mph - N/A   Unknown
10:54 PM 32.0 °F 23.6 °F 23.0 °F 69% 29.84 in - West 10.4 mph - N/A   Unknown
11:54 PM 30.9 °F 20.7 °F 21.9 °F 69% 29.84 in - West 13.8 mph - N/A   Unknown